User: anonymous   Login
Location: Girdwood
(60.9430°N, 149.1660°W)
Time: 03:57:48
(UTC-08:00)
Language:

Iridium 86 - Orbit

View from above orbital plane
View from above orbital plane
View from above satellite
View from above satellite

Ground track
Ground track

The orbit data is extracted from the following two-line orbital elements,

1 25528U 98066B   15085.19369880  .00000460  00000-0  15706-3 0  9996
2 25528 086.3975 330.1159 0002247 090.0451 270.1003 14.34217783862692
Epoch (UTC): 26 March 2015 04:38:55
Eccentricity: 0.0002247
inclination: 86.3975°
perigee height: 776 km
apogee height: 779 km
right ascension of ascending node: 330.1159°
argument of perigee: 90.0451°
revolutions per day: 14.34217783
mean anomaly at epoch: 270.1003°
orbit number at epoch: 86269

The dashed part of the orbit path shows where the satellite is in the earth's shadow,  

DLR